Weather in Podz

Russia / Komi Republic     60°40′08″N   50°21′19″E
temp.,
°C
wind,
m/s
gust,
m/s
humid.,
%
clouds,
%
prec.,
mm/h
press.,
hPa
HPBL,
m
26 february, fri
fri2600:00−21sse389699 0.0 1020312
03:00−22sse3896100 0.0 1020291
06:00−22sse3995100 0.0 1019338
09:00−21sse4893100 0.0 1017370
12:00−17sse4988100 0.0 1016541
15:00−16sse51089100 0.0 1014647
18:00−18sse51293100 0.1 1011617
21:00−19se41294100 0.1 1011523
27 february, sat
sat2700:00−20se41195100 0.0 1009485
03:00−20ese41195100 0.0 1009430
06:00−20ese31195100 0.0 1008425
09:00−18ese3892100 0.0 1009477
12:00−14e3688100 0.0 1009597
15:00−13e3689100 0.1 1009618
18:00−16ene2397100 0.1 101081
21:00−18e229770 0.1 101121
28 february, sun
sun2800:00−20ne229914 0.0 101220
03:00−21ene229943 0.0 101420
06:00−23ene22987 0.0 101420
09:00−20e13924 0.0 1015221
12:00−15ene23815 0.0 1015434
15:00−13ne138445 0.0 1016455
18:00−18n129530 0.0 101720
21:00−20nne019815 0.0 101920
1 march, mon
mon100:00−21wnw11970 0.0 101920
03:00−21w12960 0.0 102020
06:00−21sw22970 0.0 102120
09:00−17sw249330 0.0 1020185
12:00−11sw369021 0.0 1018341
15:00−9ssw489156 0.0 1015424
18:00−10ssw51293100 0.0 1011496
21:00−9sw51293100 0.6 1008597
2 march, tue
tue200:00−7sw51294100 1.3 1004643
03:00−4sw41294100 2.1 1002567
06:00−3wsw3896100 0.3 1001353
09:00−2wnw3694100 0.4 1000569
12:00−1w3590100 0.1 1000615
15:000w259598 0.4 999543
18:00−4wsw239584 0.1 99834
21:00−5w379585 0.2 998195